Location: *
(34.0486°S, 61.7880°E)
Time: 13:58:53
(UTC+00:00)

SL-24 R/B - RUBIN 2 - Pass Details

Date: 01 April 2020
Orbit: 569 x 1026 km, 64.6° (Epoch: 04 June)

Event Time Altitude Azimuth Distance (km) Brightness Sun altitude
Rises 14:20:04 0° 208° (SSW) 2,804 7.3 -7.6°
Reaches altitude 10° 14:22:18 10° 206° (SSW) 1,898 6.4 -8.0°
Maximum altitude 14:26:31 76° 119° (ESE) 610 3.4 -8.9°
Drops below altitude 10° 14:30:53 10° 33° (NNE) 1,969 5.8 -9.8°
Sets 14:33:13 0° 31° (NNE) 2,919 6.7 -10.3°
